SES-12 (43488 NORAD) Tracking and Keplerian Element Data

This shows tracking and keplerian element data for the satellite.

Feedback or suggestion? Click here.




ElementValue
Catalog43488
NameSES-12
Epoch Orbit356
Epoch Day145.04855028
Epoch Year2019
RAAN37.2241
Inclination0.027
Eccentricity0.0001989
Argument of Perigee139.305
Mean Anonmoly178.2938
Mean Motion1.00272109
Decay Rate-2.75E-06
L11 43488U 18049A 19145.04855028 -.00000275 00000-0 00000+0 0 9995
L22 43488 0.0270 37.2241 0001989 139.3050 178.2938 1.00272109 3569

Live tracking and technical data element details for SES-12 (NORAD 43488). SES-12 can be tracked NOW for your location showing map with azimuth and elevation plus other details from your city location.

Track the satellite on the map from your city or location and see movement details for azimuth, elevation, latitude, longitude, range, height, and movement on the map or in text.







IsCatalogInMostPopularTable: catalog: 43488, numindb: 173
Update: records affected: 1



GetName: 43488 SES-12

Hit Count: updated at: Sat, 25 May 2019 13:27:03 GMT